QPF
0.00 0.00 0.00 0.00 0.00 0.00 0.00 0.00 0.00 0.00 0.00 0.00 0.00 0.00 0.00 0.00 0.00 0.00 0.00 0.00 0.00 0.00 0.00 0.00 0.00 0.00 0.00 0.00 0.00 0.00 0.00 0.00 0.00 0.00 0.00 0.00 0.00 0.00 0.00 0.00 0.00 0.00 0.00 0.00 0.00 0.01 0.01 0.00 0.00
0.00 0.00 0.00 0.00 0.00 0.00 0.00 0.00 0.00 0.00 0.00 0.00 0.00 0.00 0.00 0.00 0.00 0.00 0.00 0.00 0.00 0.00 0.00 0.00 0.00 0.00 0.00 0.00 0.00 0.00 0.00 0.00 0.00 0.00 0.00 0.00 0.00 0.00 0.00 0.00 0.00 0.00 0.00 0.00 0.00 0.01 0.01 0.00 0.00
0.00 0.00 0.00 0.00 0.00 0.00 0.00 0.00 0.00 0.00 0.00 0.00 0.00 0.00 0.00 0.00 0.00 0.00 0.00 0.00 0.00 0.00 0.00 0.00 0.00 0.00 0.00 0.00 0.00 0.00 0.00 0.00 0.00 0.00 0.00 0.00 0.00 0.00 0.00 0.00 0.00 0.00 0.00 0.00 0.00 0.01 0.01 0.00 0.00
0.00 0.00 0.00 0.00 0.00 0.00 0.00 0.00 0.00 0.00 0.00 0.00 0.00 0.00 0.00 0.00 0.00 0.00 0.00 0.00 0.00 0.00 0.00 0.00 0.00 0.00 0.00 0.00 0.00 0.00 0.00 0.00 0.00 0.01 0.00 0.00 0.00 0.00 0.00 0.00 0.00 0.00 0.00 0.01 0.01 0.01 0.00 0.00 0.00
0.00 0.00 0.00 0.00 0.00 0.00 0.00 0.00 0.00 0.00 0.00 0.00 0.00 0.00 0.00 0.00 0.00 0.00 0.00 0.00 0.00 0.00 0.00 0.00 0.00 0.00 0.00 0.00 0.00 0.01 0.01 0.03 0.05 0.19 0.18 0.13 0.09 0.03 0.00 0.00 0.00 0.00 0.00 0.01 0.01 0.01 0.00 0.00 0.00
0.00 0.00 0.00 0.00 0.00 0.00 0.00 0.00 0.00 0.00 0.00 0.00 0.00 0.00 0.00 0.00 0.00 0.00 0.00 0.00 0.00 0.00 0.00 0.00 0.00 0.00 0.00 0.00 0.09 0.26 0.06 0.09 0.07 0.05 0.10 0.23 0.30 0.22 0.12 0.03 0.00 0.00 0.00 0.00 0.01 0.01 0.00 0.00 0.00
0.00 0.00 0.00 0.00 0.00 0.00 0.00 0.00 0.00 0.00 0.00 0.00 0.00 0.00 0.00 0.00 0.00 0.00 0.00 0.00 0.00 0.00 0.00 0.00 0.00 0.00 0.00 0.02 0.09 0.08 0.20 0.30 0.39 0.25 0.08 0.16 0.38 0.54 0.30 0.10 0.03 0.00 0.00 0.00 0.00 0.00 0.00 0.00 0.00
0.00 0.00 0.00 0.00 0.00 0.00 0.00 0.00 0.00 0.00 0.00 0.00 0.00 0.00 0.00 0.00 0.00 0.00 0.00 0.00 0.00 0.00 0.00 0.00 0.00 0.00 0.01 0.06 0.03 0.05 0.20 0.27 0.30 0.50 0.35 0.15 0.38 0.61 0.52 0.25 0.10 0.02 0.00 0.00 0.00 0.00 0.00 0.00 0.00
0.00 0.00 0.00 0.00 0.00 0.00 0.00 0.00 0.00 0.00 0.00 0.00 0.00 0.00 0.00 0.00 0.00 0.00 0.00 0.00 0.00 0.00 0.00 0.00 0.00 0.00 0.01 0.03 0.05 0.09 0.12 0.21 0.16 0.08 0.06 0.07 0.16 0.38 0.46 0.22 0.07 0.01 0.00 0.00 0.00 0.00 0.00 0.00 0.00
0.00 0.00 0.00 0.00 0.00 0.00 0.00 0.00 0.00 0.00 0.00 0.00 0.00 0.00 0.00 0.00 0.00 0.00 0.00 0.00 0.00 0.00 0.00 0.00 0.00 0.00 0.00 0.02 0.09 0.13 0.13 0.16 0.13 0.06 0.01 0.01 0.14 0.30 0.31 0.19 0.04 0.01 0.00 0.00 0.00 0.00 0.00 0.00 0.00
0.00 0.00 0.00 0.00 0.00 0.00 0.00 0.00 0.00 0.00 0.00 0.00 0.00 0.00 0.00 0.00 0.00 0.00 0.00 0.00 0.00 0.00 0.00 0.00 0.00 0.00 0.00 0.00 0.08 0.09 0.09 0.11 0.05 0.01 0.00 0.00 0.16 0.41 0.20 0.10 0.04 0.00 0.00 0.00 0.00 0.00 0.00 0.00 0.00
0.00 0.00 0.00 0.00 0.00 0.00 0.00 0.00 0.00 0.00 0.00 0.00 0.00 0.00 0.00 0.00 0.00 0.00 0.00 0.00 0.00 0.00 0.00 0.00 0.00 0.00 0.00 0.00 0.02 0.02 0.01 0.01 0.00 0.00 0.00 0.01 0.15 0.57 0.09 0.02 0.00 0.00 0.00 0.00 0.00 0.00 0.00 0.00 0.00
0.00 0.00 0.00 0.00 0.00 0.00 0.00 0.00 0.00 0.00 0.00 0.00 0.00 0.00 0.00 0.00 0.00 0.00 0.00 0.00 0.00 0.00 0.00 0.00 0.00 0.00 0.00 0.00 0.01 0.02 0.00 0.00 0.00 0.00 0.00 0.00 0.09 0.39 0.05 0.00 0.00 0.00 0.00 0.00 0.00 0.00 0.00 0.00 0.00
0.00 0.00 0.00 0.00 0.00 0.00 0.00 0.00 0.00 0.00 0.00 0.00 0.00 0.00 0.00 0.00 0.00 0.00 0.00 0.00 0.00 0.00 0.00 0.00 0.00 0.00 0.00 0.00 0.00 0.06 0.02 0.01 0.00 0.00 0.03 0.06 0.10 0.14 0.04 0.00 0.00 0.00 0.00 0.00 0.00 0.00 0.00 0.00 0.00
0.00 0.00 0.00 0.00 0.00 0.00 0.00 0.00 0.00 0.00 0.00 0.00 0.00 0.00 0.00 0.00 0.00 0.00 0.00 0.00 0.00 0.00 0.00 0.00 0.00 0.00 0.00 0.00 0.00 0.04 0.06 0.03 0.01 0.03 0.03 0.06 0.15 0.04 0.01 0.00 0.00 0.00 0.00 0.00 0.00 0.00 0.00 0.00 0.00
0.00 0.00 0.00 0.00 0.00 0.00 0.00 0.00 0.00 0.00 0.00 0.00 0.00 0.00 0.00 0.00 0.00 0.00 0.00 0.00 0.00 0.00 0.00 0.00 0.00 0.00 0.00 0.00 0.01 0.03 0.06 0.06 0.05 0.08 0.10 0.11 0.15 0.03 0.00 0.00 0.00 0.00 0.00 0.00 0.00 0.00 0.00 0.00 0.00
0.00 0.00 0.00 0.00 0.00 0.00 0.00 0.00 0.00 0.00 0.00 0.00 0.00 0.00 0.00 0.00 0.00 0.00 0.00 0.00 0.00 0.00 0.00 0.00 0.00 0.00 0.00 0.00 0.01 0.07 0.07 0.15 0.11 0.19 0.14 0.14 0.14 0.03 0.00 0.00 0.00 0.00 0.00 0.00 0.00 0.00 0.00 0.00 0.00
0.00 0.00 0.00 0.00 0.00 0.00 0.00 0.00 0.00 0.00 0.00 0.00 0.00 0.00 0.00 0.00 0.00 0.00 0.00 0.00 0.00 0.00 0.00 0.00 0.00 0.00 0.00 0.00 0.00 0.03 0.12 0.12 0.20 0.21 0.09 0.17 0.13 0.01 0.00 0.00 0.00 0.00 0.00 0.00 0.00 0.00 0.00 0.00 0.00
0.00 0.00 0.00 0.00 0.00 0.00 0.00 0.00 0.00 0.00 0.00 0.00 0.00 0.00 0.00 0.00 0.00 0.00 0.00 0.00 0.00 0.00 0.00 0.00 0.00 0.00 0.00 0.00 0.01 0.02 0.10 0.09 0.24 0.28 0.08 0.16 0.07 0.00 0.00 0.00 0.00 0.00 0.00 0.00 0.00 0.00 0.00 0.00 0.00
0.00 0.00 0.00 0.00 0.00 0.00 0.00 0.00 0.00 0.00 0.00 0.00 0.00 0.00 0.00 0.00 0.00 0.00 0.00 0.00 0.00 0.00 0.00 0.00 0.00 0.00 0.00 0.00 0.00 0.01 0.02 0.07 0.23 0.21 0.05 0.14 0.07 0.01 0.00 0.00 0.00 0.00 0.00 0.00 0.00 0.00 0.00 0.00 0.00
0.00 0.00 0.00 0.00 0.00 0.00 0.00 0.00 0.00 0.00 0.00 0.00 0.00 0.00 0.00 0.00 0.00 0.00 0.00 0.00 0.00 0.00 0.00 0.00 0.00 0.00 0.00 0.00 0.00 0.00 0.01 0.05 0.38 0.34 0.07 0.06 0.06 0.03 0.00 0.00 0.00 0.00 0.00 0.00 0.00 0.00 0.00 0.00 0.00
0.00 0.00 0.00 0.00 0.00 0.00 0.00 0.00 0.00 0.00 0.00 0.00 0.00 0.00 0.00 0.00 0.00 0.00 0.00 0.00 0.00 0.00 0.00 0.00 0.00 0.00 0.00 0.00 0.00 0.00 0.00 0.03 0.17 0.29 0.17 0.09 0.04 0.03 0.02 0.00 0.00 0.00 0.00 0.00 0.00 0.00 0.00 0.00 0.00
0.00 0.00 0.00 0.00 0.00 0.00 0.00 0.00 0.00 0.00 0.00 0.00 0.00 0.00 0.00 0.00 0.00 0.00 0.00 0.00 0.00 0.00 0.00 0.00 0.00 0.00 0.00 0.00 0.00 0.00 0.00 0.00 0.06 0.23 0.28 0.25 0.11 0.08 0.05 0.01 0.00 0.00 0.00 0.00 0.00 0.00 0.00 0.00 0.00
0.00 0.00 0.00 0.00 0.00 0.01 0.00 0.00 0.00 0.00 0.00 0.00 0.00 0.00 0.00 0.00 0.00 0.00 0.00 0.00 0.00 0.00 0.00 0.00 0.00 0.00 0.00 0.00 0.00 0.00 0.00 0.00 0.00 0.07 0.16 0.22 0.16 0.14 0.09 0.04 0.01 0.00 0.00 0.01 0.00 0.00 0.00 0.00 0.00
0.00 0.00 0.01 0.01 0.01 0.01 0.00 0.00 0.00 0.00 0.00 0.00 0.00 0.00 0.00 0.00 0.00 0.00 0.00 0.00 0.00 0.00 0.00 0.00 0.00 0.00 0.00 0.00 0.00 0.00 0.00 0.00 0.00 0.00 0.01 0.04 0.05 0.05 0.05 0.02 0.01 0.00 0.00 0.01 0.01 0.01 0.01 0.00 0.00
0.00 0.00 0.02 0.02 0.00 0.00 0.00 0.00 0.00 0.00 0.00 0.00 0.00 0.00 0.00 0.00 0.00 0.00 0.00 0.00 0.00 0.00 0.00 0.00 0.00 0.00 0.00 0.00 0.00 0.00 0.00 0.00 0.00 0.00 0.00 0.00 0.00 0.00 0.00 0.00 0.00 0.00 0.00 0.01 0.02 0.02 0.01 0.01 0.01
0.01 0.02 0.01 0.08 0.02 0.01 0.00 0.00 0.00 0.00 0.00 0.00 0.00 0.00 0.00 0.00 0.00 0.00 0.00 0.00 0.00 0.00 0.00 0.00 0.00 0.00 0.00 0.00 0.00 0.00 0.00 0.00 0.00 0.00 0.00 0.00 0.00 0.00 0.00 0.00 0.00 0.00 0.00 0.00 0.01 0.02 0.02 0.02 0.01
0.01 0.05 0.06 0.04 0.03 0.02 0.00 0.00 0.00 0.00 0.00 0.00 0.00 0.00 0.00 0.00 0.00 0.00 0.00 0.00 0.00 0.00 0.00 0.00 0.00 0.00 0.00 0.00 0.00 0.00 0.00 0.00 0.00 0.00 0.00 0.00 0.00 0.00 0.00 0.00 0.00 0.00 0.00 0.00 0.00 0.00 0.00 0.01 0.01
0.01 0.06 0.11 0.04 0.01 0.03 0.03 0.03 0.00 0.00 0.00 0.00 0.00 0.00 0.00 0.00 0.00 0.00 0.00 0.00 0.00 0.00 0.00 0.00 0.00 0.00 0.00 0.00 0.00 0.00 0.00 0.00 0.00 0.00 0.00 0.00 0.00 0.00 0.00 0.00 0.00 0.00 0.00 0.00 0.00 0.00 0.00 0.00 0.00
0.00 0.02 0.07 0.11 0.03 0.00 0.01 0.00 0.00 0.00 0.00 0.00 0.00 0.00 0.00 0.00 0.00 0.00 0.00 0.00 0.00 0.00 0.00 0.00 0.00 0.00 0.00 0.00 0.00 0.00 0.00 0.00 0.00 0.00 0.00 0.00 0.00 0.00 0.00 0.00 0.00 0.00 0.00 0.00 0.00 0.00 0.00 0.00 0.00
MSLP
1010.67 1010.87 1010.94 1011.58 1013.58 1014.41 1013.64 1011.83 1010.01 1008.54 1007.27 1005.99 1005.62 1005.85 1005.89 1005.81 1006.21 1006.92 1006.22 1006.35 1006.84 1007.19 1007.48 1007.80 1008.05 1008.45 1008.95 1009.33 1009.55 1009.76 1009.60 1009.69 1010.04 1010.38 1010.74 1011.02 1010.98 1011.56 1012.13 1012.54 1012.77 1013.12 1013.25 1013.78 1014.15 1014.51 1015.00 1015.31 1015.74
1010.81 1011.01 1011.57 1012.85 1014.23 1014.64 1012.94 1010.83 1009.30 1007.66 1006.36 1005.44 1005.55 1005.58 1005.73 1005.73 1005.84 1006.17 1006.42 1006.39 1006.54 1006.94 1007.28 1007.61 1007.95 1008.39 1008.72 1009.30 1009.52 1009.86 1010.13 1009.98 1010.01 1010.42 1010.75 1011.30 1011.06 1011.80 1012.21 1012.71 1012.94 1013.21 1013.49 1013.84 1014.37 1014.79 1015.28 1015.68 1016.07
1010.71 1010.96 1012.35 1013.50 1014.22 1013.46 1011.98 1009.72 1008.23 1006.69 1005.92 1005.95 1005.59 1005.33 1005.52 1005.38 1005.46 1005.58 1005.50 1005.78 1006.40 1006.87 1007.17 1007.47 1007.81 1008.23 1008.64 1009.13 1009.54 1009.71 1010.05 1010.44 1010.47 1010.40 1010.68 1011.50 1011.60 1011.94 1012.31 1012.81 1013.15 1013.39 1013.69 1013.98 1014.48 1015.04 1015.59 1016.05 1016.35
1011.00 1011.85 1013.34 1013.59 1013.44 1011.82 1010.62 1008.83 1007.86 1006.99 1005.84 1005.39 1005.52 1005.44 1005.18 1004.59 1004.77 1004.85 1004.99 1005.52 1006.17 1006.86 1007.15 1007.50 1007.84 1008.24 1008.63 1009.13 1009.55 1009.86 1010.22 1010.64 1010.84 1011.13 1011.03 1011.41 1012.14 1012.01 1012.26 1013.00 1013.36 1013.61 1013.83 1014.08 1014.62 1015.35 1015.84 1016.28 1016.64
1011.48 1012.73 1013.69 1013.66 1012.59 1010.70 1009.49 1008.46 1007.91 1007.11 1006.34 1005.43 1005.38 1005.17 1005.13 1004.85 1004.80 1005.11 1005.51 1005.85 1006.19 1006.79 1007.11 1007.49 1007.97 1008.24 1008.64 1009.05 1009.48 1009.84 1010.36 1010.84 1011.27 1011.32 1011.65 1011.63 1012.88 1013.02 1012.64 1013.23 1013.41 1013.71 1013.97 1014.24 1014.92 1015.60 1016.09 1016.52 1016.98
1012.32 1013.30 1014.05 1013.59 1012.15 1010.16 1008.88 1008.09 1007.57 1006.77 1005.66 1004.90 1005.31 1005.30 1005.51 1005.17 1005.26 1005.39 1005.78 1006.11 1006.31 1006.71 1007.07 1007.44 1007.86 1008.24 1008.61 1008.97 1009.32 1009.96 1010.51 1011.17 1011.83 1012.12 1013.11 1012.37 1013.33 1013.63 1014.15 1014.08 1013.88 1014.01 1014.34 1014.77 1015.40 1015.86 1016.33 1016.78 1017.22
1012.32 1013.41 1013.26 1012.71 1011.83 1010.11 1008.18 1007.32 1006.99 1006.34 1005.25 1004.42 1004.58 1005.31 1005.82 1005.67 1005.35 1005.64 1005.95 1006.42 1006.55 1006.79 1007.09 1007.48 1007.86 1008.41 1008.65 1008.91 1009.40 1009.91 1010.65 1011.19 1011.69 1012.29 1012.67 1013.93 1013.86 1013.62 1014.67 1014.46 1014.36 1014.39 1014.82 1015.46 1015.91 1016.28 1016.55 1017.12 1017.52
1011.91 1012.67 1012.67 1012.09 1011.37 1009.14 1007.57 1006.89 1006.21 1005.98 1005.25 1004.75 1004.54 1005.16 1005.64 1005.14 1005.47 1005.91 1006.41 1006.78 1006.99 1006.91 1006.98 1007.56 1007.83 1008.27 1008.71 1009.28 1009.63 1010.17 1010.58 1010.58 1011.03 1011.56 1011.91 1013.39 1013.43 1015.11 1014.24 1014.72 1014.70 1014.82 1015.09 1015.96 1016.18 1016.55 1016.82 1017.39 1017.84
1011.33 1012.22 1011.81 1011.03 1010.14 1008.34 1007.17 1006.80 1005.83 1005.64 1005.59 1005.27 1005.08 1004.88 1004.28 1004.43 1005.70 1006.48 1006.82 1007.14 1007.13 1007.28 1007.21 1007.47 1007.93 1008.03 1008.46 1009.09 1009.59 1010.00 1010.49 1010.78 1010.40 1011.03 1011.79 1012.24 1013.15 1014.60 1014.69 1014.81 1014.80 1015.01 1015.42 1016.26 1016.39 1016.82 1017.16 1017.65 1018.16
1011.14 1011.05 1010.28 1009.16 1008.64 1007.99 1007.27 1007.00 1006.34 1006.10 1005.40 1005.14 1005.13 1004.78 1004.74 1004.77 1005.65 1006.40 1006.66 1006.84 1006.97 1007.20 1007.27 1007.42 1007.90 1008.25 1008.56 1008.78 1009.21 1009.79 1010.34 1010.69 1011.04 1011.16 1011.68 1011.76 1012.72 1013.60 1014.44 1014.65 1014.66 1015.22 1015.79 1016.48 1016.81 1017.09 1017.44 1018.07 1018.68
1009.90 1009.09 1008.87 1008.20 1007.42 1007.55 1007.28 1006.86 1006.62 1006.31 1005.68 1004.99 1005.25 1004.93 1005.16 1005.10 1005.69 1006.18 1006.33 1006.40 1006.33 1006.72 1007.08 1007.31 1007.76 1008.20 1008.59 1008.95 1009.01 1009.58 1010.03 1010.41 1010.93 1011.06 1011.37 1011.93 1012.51 1012.93 1014.08 1014.46 1014.76 1015.53 1016.00 1016.63 1017.03 1017.44 1017.70 1018.22 1018.82
1009.36 1008.45 1007.92 1007.57 1007.38 1007.46 1007.11 1006.37 1006.25 1006.10 1005.58 1004.63 1004.73 1004.91 1005.45 1005.10 1005.17 1005.41 1005.99 1006.04 1006.33 1006.60 1006.72 1007.02 1007.60 1008.02 1008.44 1008.78 1009.11 1009.31 1009.76 1009.98 1010.64 1010.99 1011.41 1011.71 1012.36 1013.15 1013.79 1014.19 1014.75 1015.40 1016.24 1016.95 1017.29 1017.58 1018.08 1018.39 1018.94
1008.64 1007.91 1007.52 1007.14 1007.03 1006.84 1006.46 1006.04 1005.63 1004.62 1004.62 1003.81 1004.05 1004.45 1004.74 1004.68 1004.48 1004.69 1005.21 1005.80 1006.10 1006.39 1006.40 1006.76 1007.31 1007.65 1008.14 1008.51 1008.97 1009.38 1009.71 1009.91 1010.39 1011.06 1011.36 1011.61 1012.45 1013.05 1013.42 1014.08 1014.74 1015.40 1016.33 1016.97 1017.57 1017.92 1018.23 1018.58 1019.24
1007.84 1007.44 1007.05 1006.83 1006.63 1006.50 1006.27 1004.93 1005.33 1003.84 1003.81 1003.43 1003.73 1003.79 1003.86 1003.99 1003.87 1004.61 1005.06 1005.43 1005.90 1006.02 1006.13 1006.70 1006.94 1007.32 1007.68 1008.22 1008.60 1009.13 1009.58 1009.82 1010.33 1010.91 1011.38 1011.60 1012.13 1012.57 1013.33 1014.18 1014.90 1015.45 1016.13 1016.77 1017.30 1017.97 1018.33 1018.80 1019.30
1007.84 1007.46 1006.84 1006.38 1006.02 1006.05 1005.70 1003.84 1004.32 1003.43 1003.51 1003.13 1003.08 1003.11 1003.11 1003.11 1003.57 1003.74 1003.87 1004.62 1004.92 1005.41 1005.92 1006.59 1006.68 1007.01 1007.34 1007.76 1008.29 1008.82 1009.32 1009.47 1010.14 1010.63 1011.10 1011.45 1011.75 1012.41 1012.74 1013.97 1014.79 1015.31 1015.81 1016.49 1017.48 1018.22 1018.60 1018.96 1019.30
1008.09 1007.67 1007.04 1005.79 1005.54 1005.38 1005.65 1002.60 1003.09 1002.76 1002.80 1002.62 1002.48 1002.63 1002.88 1002.74 1002.81 1002.71 1003.43 1004.10 1004.56 1005.27 1005.95 1006.43 1006.58 1006.82 1007.02 1007.36 1007.83 1008.32 1008.93 1009.27 1009.43 1009.99 1010.40 1011.07 1011.11 1011.82 1012.78 1013.68 1014.63 1015.17 1015.76 1016.51 1017.28 1018.12 1018.70 1019.21 1019.64
1008.72 1007.99 1007.19 1006.66 1005.50 1005.26 1005.13 1003.25 1002.56 1002.33 1002.44 1002.31 1002.17 1001.91 1002.21 1002.29 1002.56 1002.65 1003.01 1003.76 1004.33 1005.05 1005.94 1006.48 1006.52 1006.68 1006.94 1007.22 1007.58 1007.91 1008.38 1008.82 1008.96 1009.28 1009.52 1010.12 1010.78 1011.48 1012.38 1013.37 1014.39 1014.90 1015.62 1016.37 1017.02 1018.09 1018.44 1019.24 1019.49
1009.22 1008.73 1007.64 1006.80 1005.60 1005.00 1004.60 1003.32 1002.44 1002.23 1002.21 1001.90 1001.63 1001.37 1001.34 1001.64 1001.45 1001.80 1002.85 1003.90 1004.60 1005.03 1005.87 1006.28 1006.44 1006.60 1006.95 1007.16 1007.52 1007.76 1007.94 1008.41 1008.49 1008.82 1009.31 1009.95 1010.62 1011.49 1012.42 1013.24 1014.27 1014.69 1015.57 1016.38 1016.82 1017.60 1018.57 1018.70 1019.34
1009.19 1008.85 1007.82 1007.03 1006.23 1005.34 1004.34 1003.13 1002.21 1001.83 1001.76 1001.30 1000.98 1000.75 1000.61 1000.45 1000.76 1001.85 1002.79 1003.85 1004.71 1005.20 1005.82 1006.15 1006.31 1006.60 1006.87 1007.24 1007.42 1007.63 1007.75 1007.94 1007.97 1008.26 1009.05 1009.89 1010.63 1011.64 1012.22 1013.25 1014.20 1014.62 1015.13 1016.11 1016.54 1017.36 1018.21 1019.17 1019.31
1009.24 1008.88 1007.94 1006.74 1005.88 1005.21 1004.28 1002.54 1001.90 1001.38 1000.85 1000.61 1000.32 1000.01 999.97 1000.43 1001.17 1002.01 1002.80 1003.66 1004.25 1004.88 1005.57 1005.88 1006.08 1006.49 1006.75 1006.87 1007.24 1007.43 1007.70 1007.89 1007.93 1008.32 1009.09 1009.92 1010.84 1011.60 1012.24 1013.14 1013.80 1014.53 1015.23 1015.85 1016.34 1016.75 1017.79 1018.77 1019.02
1009.00 1008.72 1008.14 1007.37 1006.28 1005.23 1004.62 1002.16 1001.33 1000.35 999.94 999.74 999.31 998.90 998.87 999.58 1000.38 1001.70 1002.40 1003.05 1003.94 1004.62 1005.29 1005.64 1005.86 1006.31 1006.60 1006.69 1007.24 1007.59 1007.82 1008.20 1008.11 1008.52 1009.42 1010.08 1010.77 1011.56 1012.26 1013.07 1013.69 1014.34 1014.98 1015.44 1015.97 1016.53 1017.10 1018.15 1019.07
1008.65 1008.37 1007.95 1007.40 1006.81 1005.79 1005.01 1002.35 1000.77 1000.51 999.46 998.99 998.44 998.52 998.50 999.05 999.85 1000.83 1001.67 1002.51 1003.20 1004.03 1004.94 1005.42 1005.80 1006.12 1006.47 1006.59 1007.01 1007.38 1007.71 1008.11 1008.50 1008.55 1009.33 1010.14 1010.95 1011.92 1012.47 1013.13 1013.53 1014.15 1014.77 1015.26 1015.86 1016.23 1016.88 1017.36 1018.56
1008.48 1008.38 1007.93 1007.53 1007.09 1006.24 1005.26 1004.47 1000.35 999.92 998.89 998.06 997.86 997.73 997.68 998.36 999.04 1000.10 1000.88 1001.56 1002.64 1003.71 1004.54 1005.01 1005.64 1006.11 1006.44 1006.60 1006.88 1007.35 1007.81 1008.23 1008.62 1008.85 1009.57 1010.45 1011.46 1011.94 1012.46 1013.16 1013.67 1014.19 1014.70 1015.07 1015.75 1016.21 1016.64 1017.22 1017.95
1008.44 1008.35 1008.01 1007.71 1007.48 1005.97 1004.90 1004.38 1000.19 999.36 998.28 997.32 996.89 996.95 997.34 997.83 998.80 1000.09 1001.09 1001.90 1002.55 1003.53 1004.26 1004.86 1005.52 1006.02 1006.42 1006.65 1006.96 1007.35 1007.88 1008.35 1008.83 1009.20 1009.82 1010.21 1011.27 1011.89 1012.64 1013.17 1013.60 1013.97 1014.45 1014.87 1015.35 1015.99 1016.39 1017.01 1017.35
1008.58 1008.74 1008.28 1008.06 1007.39 1005.01 1003.56 1002.92 999.87 998.39 997.52 996.95 996.46 996.08 996.64 997.08 998.42 999.54 1000.66 1001.46 1002.22 1002.92 1003.71 1004.61 1005.22 1005.78 1006.23 1006.74 1007.09 1007.40 1007.92 1008.41 1008.86 1009.27 1009.71 1010.32 1011.12 1011.81 1012.38 1012.93 1013.46 1013.74 1013.96 1014.42 1014.91 1015.73 1016.33 1016.75 1017.34
1008.47 1008.53 1007.91 1007.15 1006.40 1004.51 1003.24 1001.33 998.81 997.47 996.55 996.07 996.12 995.90 995.90 996.63 997.40 998.44 999.70 1000.60 1001.41 1002.36 1003.35 1004.11 1004.72 1005.30 1005.86 1006.52 1006.98 1007.38 1007.81 1008.28 1008.86 1009.40 1009.83 1010.42 1010.90 1011.47 1012.00 1012.68 1013.07 1013.31 1013.64 1014.20 1014.76 1015.30 1015.76 1016.50 1017.23
1008.26 1008.06 1007.77 1007.58 1006.57 1005.15 1003.45 1000.72 998.54 998.05 996.56 996.63 996.27 995.86 995.37 995.72 996.77 997.92 999.24 1000.26 1001.06 1001.97 1002.79 1003.54 1004.32 1004.91 1005.46 1006.08 1006.75 1007.25 1007.77 1008.25 1008.74 1009.29 1009.78 1010.25 1010.80 1011.36 1011.70 1012.22 1012.74 1013.02 1013.47 1013.95 1014.22 1014.87 1015.67 1016.37 1016.70
1008.18 1008.26 1008.05 1007.96 1006.87 1005.17 1003.14 1001.33 1000.32 999.63 998.71 997.82 996.56 995.73 994.94 995.57 996.69 997.90 999.05 999.83 1000.76 1001.81 1002.61 1003.55 1004.26 1004.69 1005.18 1005.77 1006.33 1006.84 1007.36 1008.01 1008.61 1009.19 1009.79 1010.23 1010.71 1011.15 1011.54 1011.97 1012.39 1012.98 1013.31 1013.75 1014.23 1014.65 1015.25 1015.86 1016.18
1007.97 1007.98 1008.30 1007.56 1006.77 1005.74 1004.04 1001.90 1000.93 1000.83 1000.28 998.78 997.06 996.10 995.17 995.25 996.24 997.29 998.70 999.88 1000.73 1001.76 1002.56 1003.48 1004.22 1004.60 1005.00 1005.52 1006.05 1006.52 1007.00 1007.62 1008.14 1008.82 1009.39 1009.90 1010.33 1010.85 1011.33 1011.63 1012.09 1012.60 1013.01 1013.38 1013.86 1014.30 1014.76 1015.21 1015.38
1007.47 1007.71 1007.81 1007.24 1006.60 1005.73 1004.68 1002.42 1001.02 1000.62 1000.45 999.40 997.74 996.82 995.73 996.04 996.61 997.78 998.71 999.58 1000.52 1001.56 1002.52 1003.24 1003.81 1004.25 1004.79 1005.45 1005.96 1006.38 1006.69 1007.16 1007.71 1008.23 1008.82 1009.32 1009.82 1010.29 1010.65 1011.09 1011.59 1012.01 1012.40 1012.85 1013.25 1013.65 1013.98 1014.34 1014.61
Thickness
5728 5727 5727 5717 5684 5671 5670 5688 5710 5716 5728 5744 5747 5736 5730 5737 5728 5702 5747 5747 5742 5737 5732 5727 5723 5717 5712 5709 5707 5704 5705 5704 5701 5698 5695 5694 5698 5695 5694 5695 5696 5695 5696 5694 5693 5692 5692 5693 5693
5722 5721 5713 5693 5668 5658 5670 5697 5709 5719 5735 5746 5742 5737 5733 5728 5741 5739 5739 5743 5740 5734 5729 5723 5719 5713 5709 5704 5701 5698 5696 5697 5697 5693 5692 5688 5691 5689 5688 5688 5691 5691 5690 5690 5688 5687 5687 5688 5688
5717 5716 5693 5677 5656 5660 5676 5705 5718 5730 5737 5731 5733 5741 5731 5730 5741 5740 5748 5746 5738 5731 5725 5719 5715 5709 5705 5700 5697 5695 5691 5687 5686 5687 5686 5680 5681 5681 5682 5682 5684 5685 5685 5685 5684 5683 5683 5683 5684
5705 5697 5681 5666 5667 5682 5693 5711 5717 5719 5730 5735 5733 5724 5736 5748 5743 5747 5749 5744 5735 5727 5722 5717 5710 5704 5700 5695 5691 5688 5684 5680 5679 5677 5676 5675 5670 5675 5677 5674 5677 5679 5679 5680 5679 5676 5678 5678 5678
5694 5678 5661 5660 5669 5689 5702 5709 5714 5709 5715 5725 5728 5722 5725 5739 5745 5742 5739 5736 5729 5722 5717 5712 5705 5701 5696 5691 5686 5681 5677 5673 5671 5671 5656 5669 5659 5660 5667 5667 5671 5673 5672 5674 5673 5672 5673 5672 5671
5673 5667 5648 5649 5665 5689 5699 5710 5709 5707 5718 5724 5716 5712 5716 5734 5733 5736 5732 5727 5725 5719 5713 5707 5702 5697 5692 5688 5683 5676 5671 5665 5660 5661 5653 5659 5655 5651 5647 5653 5659 5663 5664 5666 5666 5668 5667 5667 5666
5666 5652 5650 5656 5664 5676 5697 5710 5704 5705 5708 5718 5725 5703 5713 5720 5728 5727 5725 5719 5717 5714 5709 5703 5698 5691 5687 5684 5679 5672 5664 5658 5654 5648 5650 5637 5641 5645 5638 5643 5649 5652 5655 5656 5657 5660 5662 5661 5661
5663 5654 5653 5658 5662 5673 5699 5704 5707 5702 5704 5722 5720 5695 5696 5716 5722 5719 5714 5710 5705 5706 5704 5698 5694 5688 5682 5675 5672 5664 5659 5657 5654 5648 5643 5637 5644 5630 5641 5638 5642 5645 5649 5646 5650 5655 5657 5656 5655
5665 5645 5640 5656 5664 5682 5696 5694 5704 5707 5700 5705 5710 5708 5719 5723 5716 5708 5704 5701 5700 5697 5696 5694 5688 5685 5679 5670 5665 5659 5652 5648 5652 5649 5645 5642 5640 5632 5633 5636 5640 5641 5643 5639 5646 5650 5651 5650 5650
5653 5643 5654 5671 5678 5678 5682 5684 5687 5688 5691 5694 5700 5709 5711 5714 5709 5703 5699 5697 5695 5691 5689 5688 5682 5678 5672 5667 5660 5654 5649 5644 5641 5642 5641 5641 5637 5634 5632 5635 5639 5636 5635 5634 5640 5645 5646 5643 5641
5658 5667 5666 5676 5681 5675 5672 5674 5682 5675 5675 5689 5685 5697 5699 5704 5702 5698 5697 5696 5697 5691 5685 5684 5678 5673 5668 5662 5658 5651 5643 5637 5635 5638 5638 5635 5633 5635 5630 5633 5634 5630 5629 5630 5635 5638 5640 5639 5636
5650 5664 5671 5673 5672 5666 5666 5676 5669 5668 5675 5693 5691 5692 5692 5696 5700 5699 5693 5693 5691 5688 5684 5681 5674 5670 5664 5657 5652 5648 5642 5639 5634 5632 5631 5630 5629 5626 5627 5632 5632 5630 5627 5626 5628 5630 5633 5633 5629
5651 5660 5665 5668 5665 5663 5666 5665 5669 5677 5684 5696 5691 5691 5692 5694 5701 5700 5695 5689 5686 5683 5683 5677 5672 5668 5661 5655 5648 5641 5637 5635 5629 5625 5626 5626 5622 5623 5625 5629 5629 5627 5624 5621 5622 5626 5627 5626 5625
5650 5656 5659 5660 5658 5656 5654 5670 5659 5681 5685 5688 5685 5688 5692 5693 5698 5692 5689 5685 5682 5681 5680 5672 5669 5664 5660 5653 5646 5637 5632 5629 5625 5622 5619 5621 5620 5623 5625 5624 5623 5624 5621 5618 5620 5622 5623 5622 5621
5644 5640 5649 5652 5654 5644 5652 5665 5651 5676 5676 5680 5681 5685 5689 5697 5693 5695 5695 5687 5686 5682 5676 5668 5665 5661 5657 5652 5643 5634 5629 5626 5623 5621 5619 5617 5620 5622 5626 5622 5621 5622 5622 5618 5616 5618 5618 5617 5615
5628 5632 5629 5652 5649 5648 5638 5657 5666 5673 5668 5670 5675 5676 5681 5693 5693 5700 5693 5687 5684 5676 5669 5663 5661 5657 5653 5648 5642 5634 5626 5623 5624 5621 5619 5615 5621 5624 5622 5623 5620 5620 5620 5617 5614 5615 5614 5612 5611
5608 5612 5618 5623 5644 5639 5629 5642 5663 5667 5662 5662 5669 5677 5678 5687 5687 5693 5691 5684 5680 5673 5663 5657 5656 5653 5647 5641 5637 5634 5628 5624 5623 5622 5622 5619 5622 5623 5623 5622 5618 5620 5617 5615 5614 5610 5612 5609 5611
5592 5597 5606 5609 5631 5632 5619 5629 5649 5656 5653 5654 5664 5675 5680 5682 5694 5695 5686 5677 5671 5668 5659 5655 5652 5649 5642 5637 5633 5631 5629 5624 5624 5624 5622 5618 5619 5620 5621 5620 5617 5619 5615 5612 5614 5611 5605 5610 5608
5593 5592 5599 5607 5615 5615 5619 5627 5641 5648 5645 5654 5668 5676 5681 5689 5697 5686 5680 5672 5665 5661 5656 5653 5650 5646 5640 5634 5632 5629 5628 5624 5628 5627 5623 5620 5620 5619 5621 5619 5617 5617 5616 5613 5613 5607 5604 5600 5602
5583 5580 5588 5603 5612 5608 5609 5621 5634 5643 5651 5656 5662 5677 5683 5683 5683 5678 5674 5669 5666 5661 5655 5651 5650 5644 5638 5635 5631 5630 5627 5622 5625 5626 5622 5620 5617 5616 5617 5616 5616 5615 5612 5611 5610 5608 5600 5595 5598
5577 5575 5579 5583 5595 5603 5598 5613 5627 5647 5652 5656 5670 5682 5688 5686 5684 5675 5673 5670 5666 5660 5654 5651 5648 5642 5637 5635 5630 5627 5624 5619 5621 5623 5619 5617 5616 5614 5614 5612 5612 5612 5611 5609 5609 5605 5600 5593 5591
5566 5578 5579 5581 5578 5575 5588 5586 5620 5630 5643 5654 5671 5674 5680 5685 5685 5677 5675 5670 5668 5661 5654 5650 5646 5642 5637 5634 5631 5628 5625 5621 5617 5619 5619 5616 5613 5611 5611 5608 5609 5610 5607 5606 5603 5603 5600 5596 5589
5565 5568 5572 5573 5566 5567 5576 5564 5614 5627 5635 5652 5669 5678 5682 5686 5684 5679 5676 5675 5668 5660 5653 5651 5645 5640 5636 5633 5631 5628 5624 5620 5616 5618 5614 5612 5609 5607 5607 5604 5604 5604 5603 5601 5598 5598 5596 5591 5588
5563 5561 5562 5563 5559 5556 5574 5568 5603 5619 5639 5659 5675 5681 5681 5682 5681 5674 5669 5667 5664 5658 5653 5648 5643 5640 5635 5633 5630 5627 5622 5618 5615 5612 5612 5610 5606 5605 5602 5599 5599 5599 5599 5598 5598 5592 5591 5588 5586
5552 5548 5532 5534 5539 5561 5589 5578 5609 5634 5651 5660 5668 5681 5681 5686 5680 5671 5665 5665 5663 5660 5655 5648 5643 5639 5637 5631 5628 5626 5622 5617 5615 5614 5612 5609 5606 5603 5601 5599 5597 5598 5598 5596 5595 5590 5587 5585 5581
5540 5543 5542 5552 5546 5565 5586 5578 5614 5648 5661 5669 5671 5680 5684 5684 5685 5678 5670 5668 5666 5663 5656 5651 5645 5641 5638 5633 5629 5625 5622 5618 5612 5609 5608 5607 5605 5602 5601 5597 5596 5597 5596 5594 5591 5589 5587 5581 5578
5540 5541 5547 5542 5547 5553 5564 5597 5629 5631 5653 5648 5658 5673 5681 5689 5687 5681 5672 5666 5664 5661 5657 5653 5647 5643 5640 5636 5631 5627 5622 5617 5612 5607 5606 5606 5605 5602 5601 5599 5597 5597 5595 5594 5592 5589 5583 5578 5576
5533 5536 5540 5531 5539 5551 5571 5592 5594 5602 5617 5635 5652 5670 5685 5688 5683 5676 5670 5666 5662 5657 5654 5649 5645 5644 5641 5637 5632 5629 5625 5619 5614 5608 5604 5603 5602 5600 5598 5596 5595 5593 5593 5591 5589 5585 5580 5575 5575
5532 5531 5524 5533 5537 5547 5561 5579 5595 5591 5605 5626 5648 5663 5679 5688 5685 5679 5668 5662 5659 5654 5650 5645 5642 5642 5640 5637 5634 5629 5625 5621 5617 5613 5608 5606 5604 5601 5598 5597 5595 5593 5591 5590 5588 5583 5579 5574 5574
5532 5531 5530 5534 5542 5544 5550 5567 5593 5596 5606 5622 5640 5656 5675 5680 5679 5671 5665 5660 5655 5652 5647 5643 5641 5640 5638 5634 5631 5628 5626 5623 5619 5616 5613 5610 5608 5605 5603 5601 5597 5596 5594 5591 5588 5585 5582 5579 5577